Probability
19 19 29 35 29 23 29 29 32 26 19 19 10 6 6 3 6 10 16 16 23 13 10 13 3 3 6 10 6 6 6 0 0 0 0 0 3 0 0 0 3 3 3
23 26 32 35 35 26 26 26 26 26 19 16 16 10 10 10 6 10 16 16 16 10 13 10 13 6 3 6 3 3 3 3 0 0 0 0 0 0 0 0 0 0 3
19 32 32 32 35 29 32 32 29 23 19 16 16 19 13 13 19 19 16 13 10 10 6 10 10 10 6 10 10 6 6 6 6 3 3 0 0 0 0 0 0 0 0
23 26 26 32 32 32 32 32 32 32 29 19 19 19 19 13 16 16 19 16 13 10 6 13 6 6 16 6 10 6 6 6 6 6 3 3 0 0 0 0 0 0 0
23 19 26 29 32 32 32 29 32 32 32 23 23 19 13 16 19 19 23 16 13 13 10 10 13 10 16 10 3 3 3 6 6 3 3 6 3 0 0 0 0 0 0
23 23 19 29 32 35 32 32 35 32 29 26 19 19 19 16 16 16 23 19 19 13 13 13 13 10 13 10 6 6 6 6 6 3 0 3 3 3 3 3 0 0 0
16 16 19 26 32 39 42 45 35 39 35 26 26 29 23 23 23 16 23 16 13 13 13 16 13 16 13 13 10 6 6 6 3 3 3 0 0 0 0 3 0 0 0
13 13 16 19 26 35 42 35 32 35 35 29 29 29 16 19 19 16 16 13 13 16 6 10 19 16 13 13 13 6 6 6 6 6 6 3 3 3 0 0 0 0 0
19 13 19 26 26 29 45 45 35 32 35 26 19 19 23 19 16 13 16 13 13 19 16 19 19 19 23 16 19 10 6 10 10 10 10 10 6 6 6 0 0 0 0
19 19 16 19 29 26 39 39 39 39 32 29 26 26 23 23 19 19 16 16 16 13 23 23 19 19 19 19 13 10 10 13 10 10 10 10 6 6 6 3 3 3 3
29 29 23 26 29 29 35 32 35 32 26 29 26 23 23 19 16 16 16 13 13 23 23 19 19 19 19 19 13 13 16 16 13 6 10 10 10 6 6 6 6 6 3
19 26 29 32 35 35 39 35 29 29 26 26 26 29 29 32 29 26 19 13 19 19 23 23 23 26 16 16 16 16 16 10 6 10 10 6 10 10 10 10 6 3 3
16 23 23 29 26 35 26 32 32 29 26 29 35 35 32 29 29 26 26 23 23 19 23 23 26 26 26 16 16 16 16 16 16 13 6 10 10 10 6 6 6 3 6
23 23 23 26 23 35 35 32 32 35 32 32 35 35 32 32 29 26 29 29 23 23 23 26 23 23 19 19 16 19 19 19 13 13 10 6 6 6 6 6 6 6 6
26 26 26 29 29 32 32 39 32 32 29 29 32 32 29 26 26 23 23 29 26 26 26 23 26 26 23 23 23 19 19 19 13 13 13 6 3 3 6 6 3 3 3
26 32 35 26 26 26 26 32 29 26 29 26 29 26 23 23 23 16 19 23 29 26 29 26 26 23 23 23 23 23 19 10 10 10 10 6 6 6 0 0 0 0 3
23 32 29 23 19 19 29 26 26 23 26 26 23 23 19 16 19 23 16 16 26 19 23 19 23 23 19 16 16 6 13 6 6 6 3 6 6 0 0 0 0 0 0
23 26 26 26 19 16 19 19 23 19 19 26 23 16 13 13 13 13 10 13 26 23 23 23 23 23 19 13 0 3 3 6 6 6 6 3 0 3 0 0 0 0 0
23 23 26 23 23 19 23 16 16 19 26 19 16 13 13 13 13 13 13 13 13 19 23 23 16 19 16 0 0 0 3 3 3 3 6 3 3 0 0 0 0 0 0
23 26 23 26 19 16 19 23 16 16 23 23 19 16 19 19 19 23 19 16 16 19 23 26 19 13 10 3 0 0 0 3 3 3 3 0 0 0 0 0 0 0 0
26 29 16 19 19 19 19 23 26 19 19 19 23 19 26 23 23 23 23 23 23 19 16 16 13 13 10 6 0 0 0 0 3 3 0 0 0 0 0 0 0 0 0
19 26 23 19 19 19 19 19 16 19 23 19 19 23 26 26 26 23 19 19 19 13 13 10 10 13 10 10 0 0 0 0 3 3 0 0 0 0 0 0 0 0 0
26 23 26 23 19 16 13 16 16 16 23 19 23 19 16 16 19 16 16 13 13 13 13 10 10 10 10 10 0 0 0 0 0 3 0 0 0 0 0 0 0 0 0
23 19 23 23 16 16 16 13 13 23 16 16 16 10 13 13 16 10 10 10 10 13 13 10 10 10 10 6 0 0 0 0 0 0 0 0 0 0 0 0 0 0 0
23 19 26 23 19 13 13 10 10 13 13 13 10 10 6 10 10 10 10 10 6 6 6 6 6 6 6 3 3 0 0 0 0 0 0 0 0 0 0 0 0 0 0
19 16 19 19 19 13 10 6 3 6 6 13 13 13 13 10 10 6 6 0 6 3 0 3 6 6 6 3 0 0 0 0 0 0 0 0 0 0 0 0 0 0 0
Height
5917 5916 5914 5913 5912 5911 5909 5908 5906 5905 5904 5903 5902 5901 5900 5899 5898 5897 5896 5896 5896 5895 5895 5894 5894 5894 5893 5893 5892 5891 5890 5889 5888 5887 5886 5884 5883 5882 5882 5881 5880 5879 5878
5916 5915 5914 5913 5912 5911 5909 5907 5906 5904 5903 5902 5901 5900 5899 5898 5897 5897 5896 5895 5895 5895 5894 5893 5893 5892 5892 5892 5891 5890 5889 5888 5886 5885 5884 5883 5883 5881 5880 5879 5878 5877 5876
5915 5914 5913 5912 5911 5910 5909 5907 5905 5904 5902 5901 5900 5899 5898 5897 5897 5896 5895 5894 5894 5894 5893 5892 5892 5891 5891 5890 5889 5888 5887 5886 5885 5884 5883 5882 5881 5879 5879 5877 5876 5875 5874
5914 5913 5912 5911 5910 5909 5908 5906 5904 5903 5901 5900 5899 5898 5897 5896 5896 5895 5894 5893 5893 5892 5892 5891 5890 5889 5889 5888 5887 5886 5885 5884 5883 5882 5881 5880 5878 5877 5876 5875 5874 5873 5871
5913 5912 5911 5910 5908 5907 5906 5905 5903 5902 5901 5899 5898 5897 5896 5895 5894 5893 5893 5892 5891 5891 5890 5889 5889 5888 5887 5886 5885 5884 5883 5882 5881 5880 5878 5877 5876 5875 5874 5873 5871 5870 5868
5911 5910 5909 5908 5907 5906 5905 5903 5902 5900 5899 5898 5897 5895 5894 5893 5893 5892 5891 5890 5889 5889 5888 5887 5887 5886 5885 5884 5884 5882 5881 5880 5879 5877 5876 5875 5873 5872 5871 5869 5868 5866 5865
5908 5907 5906 5905 5904 5904 5903 5901 5900 5898 5897 5896 5895 5894 5893 5892 5891 5890 5889 5888 5887 5887 5887 5886 5885 5884 5883 5882 5881 5880 5879 5877 5876 5875 5873 5872 5870 5869 5867 5866 5864 5863 5861
5906 5904 5903 5903 5902 5901 5900 5899 5898 5896 5895 5894 5893 5892 5892 5890 5889 5888 5887 5887 5886 5885 5885 5884 5883 5882 5881 5880 5879 5878 5876 5875 5873 5871 5870 5868 5867 5865 5863 5862 5861 5859 5857
5902 5901 5900 5900 5899 5898 5897 5896 5895 5894 5893 5892 5891 5890 5889 5889 5887 5886 5886 5885 5884 5884 5882 5882 5881 5880 5879 5877 5876 5875 5873 5872 5870 5868 5867 5865 5863 5861 5860 5858 5857 5855 5854
5899 5898 5897 5896 5895 5894 5894 5893 5893 5891 5890 5889 5888 5887 5887 5886 5885 5884 5884 5883 5882 5881 5880 5879 5878 5877 5876 5875 5873 5872 5870 5868 5866 5865 5863 5861 5859 5857 5855 5853 5852 5850 5849
5896 5896 5895 5894 5893 5892 5891 5891 5890 5889 5888 5886 5885 5885 5884 5883 5882 5882 5881 5880 5879 5878 5877 5876 5875 5874 5873 5871 5870 5868 5866 5864 5862 5861 5859 5857 5855 5853 5851 5849 5847 5845 5844
5892 5892 5891 5890 5890 5889 5888 5887 5886 5886 5885 5883 5882 5881 5881 5880 5879 5878 5877 5877 5876 5875 5874 5873 5871 5870 5869 5867 5866 5864 5862 5860 5858 5856 5854 5852 5850 5848 5846 5844 5842 5840 5838
5889 5888 5887 5887 5886 5886 5885 5884 5883 5882 5881 5880 5879 5877 5876 5875 5875 5874 5873 5873 5872 5871 5869 5869 5867 5866 5865 5863 5861 5859 5857 5855 5853 5851 5849 5847 5845 5843 5841 5839 5837 5834 5833
5884 5884 5883 5882 5882 5882 5881 5880 5879 5878 5877 5876 5874 5873 5872 5871 5870 5869 5869 5868 5867 5866 5865 5864 5863 5861 5860 5858 5856 5854 5852 5850 5848 5845 5843 5841 5839 5837 5835 5833 5831 5829 5827
5880 5880 5879 5879 5878 5878 5876 5875 5874 5874 5873 5872 5870 5869 5867 5866 5865 5864 5864 5863 5862 5861 5859 5858 5857 5856 5854 5852 5850 5848 5846 5843 5841 5839 5837 5835 5832 5830 5828 5826 5824 5822 5820
5876 5875 5875 5875 5874 5873 5872 5871 5870 5869 5867 5866 5865 5864 5862 5861 5860 5859 5858 5857 5856 5855 5854 5852 5851 5849 5848 5846 5844 5841 5839 5837 5834 5832 5829 5827 5825 5823 5821 5819 5817 5815 5813
5870 5870 5870 5869 5869 5867 5866 5865 5864 5863 5862 5861 5859 5858 5857 5856 5855 5854 5853 5852 5850 5849 5848 5846 5845 5843 5841 5839 5837 5835 5832 5830 5827 5825 5822 5820 5818 5816 5814 5812 5810 5808 5806
5863 5863 5863 5863 5862 5862 5861 5860 5859 5858 5857 5855 5854 5853 5851 5850 5850 5849 5848 5846 5845 5843 5841 5840 5838 5836 5834 5832 5829 5827 5825 5823 5820 5818 5815 5813 5811 5808 5806 5804 5802 5800 5798
5856 5856 5857 5857 5856 5856 5855 5853 5852 5851 5850 5849 5848 5847 5846 5844 5844 5843 5841 5840 5838 5837 5835 5833 5831 5829 5827 5825 5822 5820 5818 5815 5813 5810 5808 5805 5803 5801 5798 5796 5794 5792 5790
5850 5850 5850 5850 5850 5849 5848 5847 5845 5845 5844 5843 5841 5840 5839 5838 5837 5836 5834 5833 5831 5829 5827 5826 5824 5822 5820 5818 5815 5813 5810 5808 5805 5803 5800 5798 5795 5793 5790 5788 5786 5784 5782
5844 5844 5844 5844 5843 5842 5841 5840 5838 5838 5837 5836 5835 5833 5832 5831 5830 5828 5827 5825 5823 5822 5820 5818 5817 5815 5813 5810 5808 5805 5803 5800 5797 5795 5792 5789 5787 5785 5782 5780 5778 5776 5775
5837 5837 5837 5836 5835 5834 5833 5832 5831 5830 5829 5828 5827 5826 5825 5824 5822 5821 5819 5817 5816 5814 5812 5811 5809 5807 5805 5802 5800 5797 5795 5792 5789 5787 5784 5781 5779 5777 5774 5773 5771 5769 5767
5830 5829 5829 5828 5827 5827 5825 5824 5823 5822 5821 5820 5819 5818 5817 5816 5814 5812 5811 5809 5807 5806 5804 5802 5800 5799 5796 5794 5792 5789 5786 5784 5781 5779 5776 5773 5771 5769 5767 5765 5763 5761 5760
5822 5821 5821 5820 5819 5818 5817 5816 5815 5813 5812 5811 5811 5810 5809 5807 5805 5804 5802 5801 5799 5797 5795 5793 5791 5790 5788 5785 5783 5781 5778 5775 5773 5770 5768 5765 5763 5761 5759 5757 5755 5754 5752
5814 5813 5812 5811 5809 5808 5807 5806 5805 5804 5803 5802 5801 5801 5799 5798 5796 5795 5793 5792 5790 5788 5786 5784 5783 5781 5779 5777 5775 5772 5770 5767 5764 5762 5759 5757 5754 5753 5751 5749 5748 5746 5745
5804 5803 5803 5802 5800 5799 5798 5798 5797 5795 5793 5793 5792 5791 5790 5789 5787 5786 5785 5783 5781 5779 5777 5775 5774 5772 5770 5768 5766 5764 5761 5758 5756 5753 5750 5748 5746 5744 5742 5741 5740 5738 5736
Wind_Speed
7 7 8 8 8 8 9 9 8 7 6 5 5 6 5 5 5 4 4 3 3 3 3 3 3 3 3 3 4 4 5 6 6 6 6 6 6 6 6 7 8 8 9
7 7 7 9 8 8 9 9 8 7 6 6 5 5 5 5 4 4 4 3 4 4 4 4 3 4 4 4 4 5 6 6 6 6 6 6 7 7 7 7 8 9 10
6 6 7 7 8 8 9 9 8 6 6 5 5 4 4 4 4 4 3 3 4 4 4 4 4 4 4 5 5 6 7 7 7 7 7 7 7 7 8 8 9 10 10
8 7 7 7 8 8 8 8 7 7 6 5 5 5 4 4 4 4 3 3 4 5 5 5 5 5 5 6 6 7 7 8 8 8 8 8 8 8 9 10 10 11 11
8 8 7 7 8 8 8 8 7 7 6 6 5 5 4 4 4 4 4 4 4 5 5 5 5 6 6 7 8 8 8 9 9 9 8 9 9 10 10 11 11 12 12
9 8 8 8 8 8 8 8 8 7 7 7 6 5 5 5 5 5 4 5 5 5 5 5 5 6 7 7 8 8 9 9 9 9 9 9 10 11 11 12 12 13 13
9 8 8 8 8 8 8 8 8 8 8 7 6 6 5 6 5 5 5 6 6 6 6 6 6 7 7 8 8 9 10 10 11 11 12 11 11 11 12 12 13 13 13
9 9 9 9 8 8 9 8 8 8 8 8 7 7 6 6 7 6 6 6 6 6 7 7 8 8 9 9 10 11 12 12 13 13 13 13 13 13 13 14 14 14 14
10 10 11 9 9 8 8 9 9 9 9 9 8 8 7 7 7 7 6 6 7 7 7 8 9 10 11 12 12 13 14 14 14 14 14 14 15 15 15 15 16 15 15
11 11 10 10 8 8 8 8 9 9 9 9 9 8 8 9 9 9 8 8 8 9 10 10 10 11 12 13 14 14 14 15 15 15 15 15 16 17 17 17 17 16 16
12 11 11 12 10 8 9 9 10 10 10 10 10 10 10 10 10 10 11 10 11 11 11 11 12 13 13 14 15 15 16 16 16 16 17 18 18 18 18 19 19 18 17
13 13 13 14 11 10 11 11 11 11 12 11 11 12 12 12 12 12 12 12 13 13 13 13 14 15 15 16 16 16 17 17 18 18 19 19 19 19 19 20 21 20 19
15 15 14 14 14 14 12 12 12 13 13 13 13 12 13 14 14 14 14 14 15 15 14 14 15 16 17 17 18 18 18 19 20 20 20 20 20 20 20 21 21 21 22
16 16 16 16 15 14 14 14 13 14 14 15 15 15 15 16 15 15 15 15 16 16 16 17 17 17 18 19 20 20 20 21 22 22 21 21 21 22 22 22 21 22 23
17 17 17 17 17 16 16 16 15 15 16 16 16 16 16 17 17 16 16 16 16 17 18 19 19 19 19 20 21 21 22 23 23 23 22 22 22 23 23 22 23 23 24
18 17 17 17 17 17 17 17 16 17 17 18 18 18 18 18 18 18 17 17 18 18 19 20 21 21 21 22 22 23 23 24 24 23 23 24 24 24 24 24 24 24 25
20 20 18 19 19 19 19 18 18 18 18 18 19 19 19 19 18 18 18 19 20 20 21 21 22 22 22 23 24 23 24 25 25 25 25 25 25 24 24 25 26 26 26
21 21 21 22 21 21 20 20 20 20 20 20 19 20 20 19 19 19 20 21 22 23 23 23 23 23 23 24 24 25 25 25 25 25 26 26 26 26 26 26 26 27 26
22 22 22 22 22 23 23 22 23 23 22 21 20 20 21 21 21 21 22 23 24 24 24 24 24 24 25 25 25 26 26 26 26 26 26 26 26 26 27 26 26 26 26
23 22 23 24 24 23 24 24 23 23 23 23 22 21 21 22 23 23 24 24 25 25 26 26 25 25 25 25 26 27 27 27 28 28 27 27 27 27 27 26 26 26 25
23 23 24 24 24 24 24 24 24 23 24 23 23 22 22 23 24 25 25 25 26 26 25 25 26 26 26 27 27 28 29 29 28 28 28 27 27 27 27 26 26 25 25
25 25 25 26 24 24 25 25 25 26 25 25 24 24 24 25 25 25 26 26 26 26 26 27 27 27 28 28 28 28 29 29 28 27 27 27 27 27 26 26 25 25 25
28 27 27 26 26 26 26 27 27 27 27 27 27 27 27 27 27 27 27 28 28 28 28 28 29 29 29 29 29 29 28 28 27 27 27 27 27 26 26 26 25 25 25
28 29 29 29 29 29 28 29 29 29 28 28 28 28 28 28 28 29 29 29 29 29 29 29 29 30 29 29 29 28 28 28 28 28 28 27 27 26 26 26 26 26 26
30 31 31 31 30 30 30 29 29 29 29 28 29 29 29 29 29 29 29 29 29 29 29 29 29 29 29 28 28 28 28 28 28 28 28 28 27 27 27 27 26 26 26
32 32 32 31 31 30 30 30 30 30 29 29 29 29 29 29 29 29 29 29 29 28 28 28 28 28 28 27 27 27 28 28 27 27 28 28 28 27 27 26 26 26 26
Wind_Direction
11 9 8 4 4 4 1 0 359 355 356 349 338 337 332 329 325 324 321 324 323 319 325 316 326 336 338 334 333 330 329 325 322 319 316 312 305 300 303 302 298 296 292
6 360 359 0 1 358 354 353 352 347 346 345 343 345 339 335 326 323 310 309 307 307 321 328 331 324 327 323 323 325 325 322 319 315 309 307 303 300 299 296 295 293 291
356 352 347 357 357 352 347 349 347 338 335 337 342 344 333 329 329 317 302 296 302 303 303 315 315 312 314 314 324 330 324 317 311 309 306 299 296 296 297 296 296 294 293
348 341 338 342 350 347 343 340 341 340 340 338 335 335 329 323 320 314 301 286 297 298 293 300 297 303 309 314 319 321 320 317 314 309 306 303 299 298 296 297 296 295 295
331 333 336 339 340 338 334 330 330 330 330 334 335 332 331 329 323 313 304 297 300 294 291 289 287 299 304 306 308 309 311 313 313 311 305 305 303 301 298 298 296 296 296
318 319 325 331 332 332 328 327 327 322 324 321 319 321 323 316 313 301 292 288 285 285 287 288 287 296 298 299 300 303 307 312 314 315 309 306 305 301 298 297 295 295 294
307 312 313 316 322 323 322 320 322 317 319 316 311 314 318 314 304 288 283 278 275 281 286 289 287 296 297 296 298 301 304 308 312 314 313 308 305 302 297 296 295 293 293
304 309 315 308 309 310 312 312 314 313 312 314 312 309 309 312 312 301 289 286 289 288 287 288 287 294 298 299 299 300 303 305 309 311 310 312 309 304 300 299 297 295 294
302 304 309 305 305 305 306 308 304 308 311 311 307 302 297 297 303 302 297 293 294 290 287 292 294 294 295 297 301 304 304 304 307 310 308 309 308 305 302 298 295 294 295
300 308 311 312 313 307 313 312 308 307 306 303 298 294 293 290 291 292 292 291 292 290 288 291 294 297 297 297 299 302 303 303 305 307 306 305 304 302 301 299 297 295 293
294 298 303 309 313 312 311 312 308 306 304 301 297 291 290 291 290 289 291 290 287 287 287 289 292 294 296 297 298 299 301 301 302 302 301 301 302 302 299 299 297 297 294
295 299 299 300 298 300 305 307 305 302 300 296 292 288 285 286 285 282 283 284 285 286 286 288 290 292 293 295 297 298 299 299 298 298 297 297 298 297 297 297 296 295 295
293 295 296 298 293 295 294 296 294 295 293 289 289 289 286 285 284 282 283 286 288 289 290 291 289 290 293 295 297 298 299 298 298 296 295 296 296 295 295 296 294 293 294
291 294 296 297 293 292 292 294 294 290 290 289 287 286 286 284 283 282 282 285 288 289 290 289 289 291 294 296 298 298 298 298 298 298 298 297 295 294 294 294 294 292 292
289 294 296 296 295 294 293 292 292 291 289 287 285 285 286 284 282 280 280 283 285 287 290 290 292 292 294 296 298 298 298 298 296 296 296 297 297 296 294 292 292 292 293
288 290 291 294 296 293 289 289 288 289 289 287 286 285 285 283 281 281 280 281 284 287 290 291 291 291 293 295 296 297 297 297 296 294 293 294 295 295 293 292 292 292 293
285 288 286 288 292 293 292 288 285 288 288 288 287 286 286 286 282 283 284 286 287 288 290 291 290 290 292 294 295 296 297 296 296 295 293 293 293 292 290 290 290 291 292
281 284 285 286 286 288 290 288 286 286 286 286 287 286 284 283 284 284 284 286 288 289 289 288 289 289 289 293 293 294 295 296 295 295 293 292 292 293 293 291 289 290 290
281 284 285 284 284 284 286 285 287 285 284 283 284 284 282 282 283 283 284 286 288 289 289 287 289 290 290 292 295 296 296 295 294 293 292 291 293 293 293 293 290 289 288
278 281 283 285 285 285 284 285 284 282 282 281 280 282 282 281 284 285 285 287 287 288 288 287 288 290 293 294 295 295 294 293 292 291 290 291 292 292 292 291 290 288 286
275 277 280 283 284 284 283 282 283 282 284 284 283 282 282 281 283 285 286 286 286 287 288 288 288 289 290 292 293 293 293 292 292 292 291 291 292 292 290 290 289 287 286
275 277 280 281 283 283 283 285 283 283 284 284 283 283 283 280 281 284 286 287 287 287 287 287 288 288 289 289 291 293 294 293 292 293 293 291 290 289 289 288 288 287 286
276 278 279 279 282 284 284 284 284 284 283 283 282 283 282 281 281 282 284 285 287 288 287 287 287 288 288 289 290 292 294 293 293 294 292 291 290 289 288 287 286 286 286
275 277 280 280 282 283 284 284 283 283 283 282 281 281 282 283 284 283 286 286 286 286 286 286 287 288 288 289 289 290 292 294 294 294 292 291 290 289 287 285 285 285 287
276 277 279 280 280 281 281 282 283 283 282 281 279 280 281 283 284 285 286 286 285 285 285 286 287 288 289 288 288 289 292 293 292 292 292 291 290 288 286 285 285 285 287
277 278 279 280 279 279 280 279 280 281 281 280 280 280 280 282 284 285 285 285 286 286 287 287 287 286 287 288 289 290 292 293 292 293 292 290 288 287 286 285 285 286 287